Time,TemperatureF,DewpointF,PressureIn,WindDirection,WindDirectionDegrees,WindSpeedMPH,WindSpeedGustMPH,Humidity,HourlyPrecipIn,Conditions,Clouds,dailyrainin,SoftwareType,DateUTC
2013-07-17 00:00:00,79.9,67.9,30.15,North,0,0.0,0.0,67,0.00,CLR,,0.00,WeatherDisplay:10.37,2013-07-17 05:00:00,
2013-07-17 00:10:00,79.3,67.9,30.15,North,0,0.0,0.0,68,0.00,CLR,,0.00,WeatherDisplay:10.37,2013-07-17 05:10:00,
2013-07-17 00:20:00,79.0,67.9,30.15,North,0,0.0,0.0,69,0.00,CLR,,0.00,WeatherDisplay:10.37,2013-07-17 05:20:00,
2013-07-17 00:30:00,78.6,68.0,30.15,North,0,0.0,0.0,70,0.00,CLR,,0.00,WeatherDisplay:10.37,2013-07-17 05:30:00,
2013-07-17 00:40:00,78.3,68.1,30.15,North,0,0.0,0.0,71,0.00,CLR,,0.00,WeatherDisplay:10.37,2013-07-17 05:40:00,
2013-07-17 00:50:00,78.1,68.8,30.15,North,0,0.0,0.0,73,0.00,CLR,,0.00,WeatherDisplay:10.37,2013-07-17 05:50:00,
2013-07-17 01:00:00,77.9,68.5,30.18,North,0,0.0,0.0,73,0.00,CLR,,0.00,WeatherDisplay:10.37,2013-07-17 06:00:00,
2013-07-17 01:10:00,77.9,68.5,30.18,North,0,0.0,0.0,73,0.00,CLR,,0.00,WeatherDisplay:10.37,2013-07-17 06:10:00,
2013-07-17 01:20:00,77.5,68.6,30.18,North,0,0.0,0.0,74,0.00,CLR,,0.00,WeatherDisplay:10.37,2013-07-17 06:20:00,
2013-07-17 01:30:00,77.4,68.4,30.15,North,0,0.0,0.0,74,0.00,CLR,,0.00,WeatherDisplay:10.37,2013-07-17 06:30:00,
2013-07-17 01:40:00,77.0,68.5,30.15,North,0,0.0,0.0,75,0.00,CLR,,0.00,WeatherDisplay:10.37,2013-07-17 06:40:00,
2013-07-17 01:50:00,76.6,68.5,30.15,North,0,0.0,0.0,76,0.00,CLR,,0.00,WeatherDisplay:10.37,2013-07-17 06:50:00,
2013-07-17 02:00:00,76.3,68.5,30.15,North,0,0.0,0.0,77,0.00,CLR,,0.00,WeatherDisplay:10.37,2013-07-17 07:00:00,
2013-07-17 02:10:00,76.1,68.4,30.15,North,0,0.0,0.0,77,0.00,CLR,,0.00,WeatherDisplay:10.37,2013-07-17 07:10:00,
2013-07-17 02:20:00,76.1,68.7,30.15,North,0,0.0,0.0,78,0.00,CLR,,0.00,WeatherDisplay:10.37,2013-07-17 07:20:00,
2013-07-17 02:30:00,76.1,68.7,30.18,North,0,0.0,0.0,78,0.00,CLR,,0.00,WeatherDisplay:10.37,2013-07-17 07:30:00,
2013-07-17 02:40:00,75.9,68.2,30.18,North,0,0.0,0.0,77,0.00,CLR,,0.00,WeatherDisplay:10.37,2013-07-17 07:40:00,
2013-07-17 02:50:00,75.7,68.0,30.15,North,0,0.0,0.0,77,0.00,CLR,,0.00,WeatherDisplay:10.37,2013-07-17 07:50:00,
2013-07-17 03:00:00,75.5,68.2,30.18,North,0,0.0,0.0,78,0.00,CLR,,0.00,WeatherDisplay:10.37,2013-07-17 08:00:00,
2013-07-17 03:10:00,75.2,67.9,30.18,North,0,0.0,0.0,78,0.00,CLR,,0.00,WeatherDisplay:10.37,2013-07-17 08:10:00,
2013-07-17 03:20:00,75.2,68.2,30.18,North,0,0.0,0.0,79,0.00,CLR,,0.00,WeatherDisplay:10.37,2013-07-17 08:20:00,
2013-07-17 03:30:00,75.0,68.4,30.18,North,0,0.0,0.0,80,0.00,CLR,,0.00,WeatherDisplay:10.37,2013-07-17 08:30:00,
2013-07-17 03:40:00,74.8,68.2,30.18,North,0,0.0,0.0,80,0.00,CLR,,0.00,WeatherDisplay:10.37,2013-07-17 08:40:00,
2013-07-17 03:50:00,74.5,67.9,30.18,North,0,0.0,0.0,80,0.00,CLR,,0.00,WeatherDisplay:10.37,2013-07-17 08:50:00,
2013-07-17 04:00:00,74.3,68.1,30.18,North,0,0.0,0.0,81,0.00,CLR,,0.00,WeatherDisplay:10.37,2013-07-17 09:00:00,
2013-07-17 04:10:00,74.1,68.3,30.18,North,0,0.0,0.0,82,0.00,CLR,,0.00,WeatherDisplay:10.37,2013-07-17 09:10:00,
2013-07-17 04:20:00,74.1,68.6,30.18,North,0,0.0,0.0,83,0.00,CLR,,0.00,WeatherDisplay:10.37,2013-07-17 09:20:00,
2013-07-17 04:30:00,73.9,68.8,30.18,North,0,0.0,0.0,84,0.00,CLR,,0.00,WeatherDisplay:10.37,2013-07-17 09:30:00,
2013-07-17 04:40:00,73.8,68.6,30.18,North,0,0.0,0.0,84,0.00,CLR,,0.00,WeatherDisplay:10.37,2013-07-17 09:40:00,
2013-07-17 04:50:00,73.6,68.8,30.18,North,0,0.0,0.0,85,0.00,CLR,,0.00,WeatherDisplay:10.37,2013-07-17 09:50:00,
2013-07-17 05:00:00,73.6,68.8,30.18,North,0,0.0,0.0,85,0.00,CLR,,0.00,WeatherDisplay:10.37,2013-07-17 10:00:00,
2013-07-17 05:10:00,73.8,69.3,30.18,North,0,0.0,0.0,86,0.00,CLR,,0.00,WeatherDisplay:10.37,2013-07-17 10:10:00,
2013-07-17 05:20:00,73.9,69.5,30.18,North,0,0.0,0.0,86,0.00,CLR,,0.00,WeatherDisplay:10.37,2013-07-17 10:20:00,
2013-07-17 05:30:00,73.9,69.5,30.18,North,0,0.0,0.0,86,0.00,CLR,,0.00,WeatherDisplay:10.37,2013-07-17 10:30:00,
2013-07-17 05:40:00,73.9,69.5,30.18,North,0,0.0,0.0,86,0.00,CLR,,0.00,WeatherDisplay:10.37,2013-07-17 10:40:00,
2013-07-17 05:50:00,73.9,69.1,30.18,North,0,0.0,0.0,85,0.00,CLR,,0.00,WeatherDisplay:10.37,2013-07-17 10:50:00,
2013-07-17 06:00:00,73.9,69.1,30.18,North,0,0.0,0.0,85,0.00,CLR,,0.00,WeatherDisplay:10.37,2013-07-17 11:00:00,
2013-07-17 06:10:00,73.9,68.8,30.18,North,0,0.0,0.0,84,0.00,CLR,,0.00,WeatherDisplay:10.37,2013-07-17 11:10:00,
2013-07-17 06:20:00,74.1,69.0,30.18,North,0,0.0,0.0,84,0.00,CLR,,0.00,WeatherDisplay:10.37,2013-07-17 11:20:00,
2013-07-17 06:30:00,74.3,69.1,30.18,North,0,0.0,0.0,84,0.00,CLR,,0.00,WeatherDisplay:10.37,2013-07-17 11:30:00,
2013-07-17 06:40:00,74.7,69.2,30.18,North,0,0.0,0.0,83,0.00,CLR,,0.00,WeatherDisplay:10.37,2013-07-17 11:40:00,
2013-07-17 06:50:00,75.0,68.8,30.18,North,0,0.0,0.0,81,0.00,CLR,,0.00,WeatherDisplay:10.37,2013-07-17 11:50:00,
2013-07-17 07:00:00,75.2,68.6,30.18,North,0,0.0,0.0,80,0.00,CLR,,0.00,WeatherDisplay:10.37,2013-07-17 12:00:00,
2013-07-17 07:10:00,75.6,69.0,30.18,North,0,0.0,0.0,80,0.00,CLR,,0.00,WeatherDisplay:10.37,2013-07-17 12:10:00,
2013-07-17 07:20:00,75.9,68.9,30.18,North,0,0.0,0.0,79,0.00,CLR,,0.00,WeatherDisplay:10.37,2013-07-17 12:20:00,
2013-07-17 07:30:00,76.5,69.1,30.18,North,0,0.0,0.0,78,0.00,CLR,,0.00,WeatherDisplay:10.37,2013-07-17 12:30:00,
2013-07-17 07:40:00,77.0,68.9,30.18,North,0,0.0,0.0,76,0.00,CLR,,0.00,WeatherDisplay:10.37,2013-07-17 12:40:00,
2013-07-17 07:50:00,77.5,68.6,30.18,North,0,0.0,0.0,74,0.00,CLR,,0.00,WeatherDisplay:10.37,2013-07-17 12:50:00,
2013-07-17 08:00:00,78.2,68.4,30.18,North,0,0.0,0.0,72,0.00,CLR,,0.00,WeatherDisplay:10.37,2013-07-17 13:00:00,
2013-07-17 08:10:00,78.6,68.0,30.18,North,0,0.0,0.0,70,0.00,CLR,,0.00,WeatherDisplay:10.37,2013-07-17 13:10:00,
2013-07-17 08:20:00,79.3,67.9,30.18,North,0,0.0,0.0,68,0.00,CLR,,0.00,WeatherDisplay:10.37,2013-07-17 13:20:00,
2013-07-17 08:30:00,79.9,67.5,30.18,North,0,0.0,0.0,66,0.00,CLR,,0.00,WeatherDisplay:10.37,2013-07-17 13:30:00,
2013-07-17 08:40:00,80.4,67.5,30.18,North,0,0.0,0.0,65,0.00,CLR,,0.00,WeatherDisplay:10.37,2013-07-17 13:40:00,
2013-07-17 08:50:00,80.9,67.1,30.20,North,0,0.0,0.0,63,0.00,CLR,,0.00,WeatherDisplay:10.37,2013-07-17 13:50:00,
2013-07-17 09:00:00,81.5,66.8,30.20,North,0,0.0,0.0,61,0.00,CLR,,0.00,WeatherDisplay:10.37,2013-07-17 14:00:00,
2013-07-17 09:10:00,82.0,66.3,30.20,North,0,0.0,0.0,59,0.00,CLR,,0.00,WeatherDisplay:10.37,2013-07-17 14:10:00,
2013-07-17 09:20:00,82.7,66.4,30.18,North,0,0.0,0.0,58,0.00,CLR,,0.00,WeatherDisplay:10.37,2013-07-17 14:20:00,
2013-07-17 09:30:00,82.9,65.6,30.18,North,0,0.0,0.0,56,0.00,CLR,,0.00,WeatherDisplay:10.37,2013-07-17 14:30:00,
2013-07-17 09:40:00,83.8,65.4,30.18,North,0,0.0,0.0,54,0.00,CLR,,0.00,WeatherDisplay:10.37,2013-07-17 14:40:00,
2013-07-17 09:50:00,84.4,64.8,30.18,North,0,0.0,0.0,52,0.00,CLR,,0.00,WeatherDisplay:10.37,2013-07-17 14:50:00,
2013-07-17 10:00:00,84.2,64.7,30.18,North,0,0.0,0.0,52,0.00,CLR,,0.00,WeatherDisplay:10.37,2013-07-17 15:00:00,
2013-07-17 10:10:00,84.4,64.8,30.18,North,0,0.0,0.0,52,0.00,CLR,,0.00,WeatherDisplay:10.37,2013-07-17 15:10:00,
2013-07-17 10:20:00,84.7,65.2,30.18,North,0,0.0,0.0,52,0.00,CLR,,0.00,WeatherDisplay:10.37,2013-07-17 15:20:00,
2013-07-17 10:30:00,85.3,65.1,30.18,North,0,0.0,0.0,51,0.00,CLR,,0.00,WeatherDisplay:10.37,2013-07-17 15:30:00,
2013-07-17 10:40:00,85.8,65.6,30.18,North,0,0.0,0.0,51,0.00,CLR,,0.00,WeatherDisplay:10.37,2013-07-17 15:40:00,
2013-07-17 10:50:00,86.4,65.5,30.18,North,0,0.0,0.0,50,0.00,CLR,,0.00,WeatherDisplay:10.37,2013-07-17 15:50:00,
2013-07-17 11:00:00,86.5,65.1,30.18,North,0,0.0,0.0,49,0.00,CLR,,0.00,WeatherDisplay:10.37,2013-07-17 16:00:00,
2013-07-17 11:10:00,86.9,64.2,30.18,North,0,0.0,0.0,47,0.00,CLR,,0.00,WeatherDisplay:10.37,2013-07-17 16:10:00,
2013-07-17 11:20:00,87.3,64.6,30.18,North,0,0.0,0.0,47,0.00,CLR,,0.00,WeatherDisplay:10.37,2013-07-17 16:20:00,
2013-07-17 11:30:00,87.4,64.7,30.18,North,0,0.0,0.0,47,0.00,CLR,,0.00,WeatherDisplay:10.37,2013-07-17 16:30:00,
2013-07-17 11:40:00,87.9,64.5,30.18,North,0,0.0,0.0,46,0.00,CLR,,0.00,WeatherDisplay:10.37,2013-07-17 16:40:00,
2013-07-17 11:50:00,88.3,63.6,30.18,North,0,0.0,0.0,44,0.00,CLR,,0.00,WeatherDisplay:10.37,2013-07-17 16:50:00,
2013-07-17 12:00:00,88.9,64.1,30.18,North,0,0.0,0.0,44,0.00,CLR,,0.00,WeatherDisplay:10.37,2013-07-17 17:00:00,
2013-07-17 12:10:00,90.0,63.9,30.18,North,0,0.0,0.0,42,0.00,CLR,,0.00,WeatherDisplay:10.37,2013-07-17 17:10:00,
2013-07-17 12:20:00,90.9,64.6,30.18,North,0,0.0,0.0,42,0.00,CLR,,0.00,WeatherDisplay:10.37,2013-07-17 17:20:00,
2013-07-17 12:30:00,91.0,63.4,30.18,North,0,0.0,0.0,40,0.00,CLR,,0.00,WeatherDisplay:10.37,2013-07-17 17:30:00,
2013-07-17 12:40:00,91.5,63.1,30.18,North,0,0.0,0.0,39,0.00,CLR,,0.00,WeatherDisplay:10.37,2013-07-17 17:40:00,
2013-07-17 12:50:00,91.9,63.4,30.18,North,0,0.0,0.0,39,0.00,CLR,,0.00,WeatherDisplay:10.37,2013-07-17 17:50:00,
2013-07-17 13:00:00,91.6,62.4,30.18,North,0,0.0,0.0,38,0.00,CLR,,0.00,WeatherDisplay:10.37,2013-07-17 18:00:00,
2013-07-17 13:10:00,91.6,61.6,30.18,North,0,0.0,0.0,37,0.00,CLR,,0.00,WeatherDisplay:10.37,2013-07-17 18:10:00,
2013-07-17 13:20:00,91.6,61.6,30.18,North,0,0.0,0.0,37,0.00,CLR,,0.00,WeatherDisplay:10.37,2013-07-17 18:20:00,
2013-07-17 13:30:00,91.8,61.8,30.18,North,0,0.0,0.0,37,0.00,CLR,,0.00,WeatherDisplay:10.37,2013-07-17 18:30:00,
2013-07-17 13:40:00,91.4,61.5,30.18,North,0,0.0,0.0,37,0.00,CLR,,0.00,WeatherDisplay:10.37,2013-07-17 18:40:00,
2013-07-17 13:50:00,91.5,60.8,30.18,North,0,0.0,0.0,36,0.00,CLR,,0.00,WeatherDisplay:10.37,2013-07-17 18:50:00,
2013-07-17 14:00:00,90.9,60.2,30.18,North,0,0.0,0.0,36,0.00,CLR,,0.00,WeatherDisplay:10.37,2013-07-17 19:00:00,
2013-07-17 14:10:00,91.2,61.3,30.18,North,0,0.0,0.0,37,0.00,CLR,,0.00,WeatherDisplay:10.37,2013-07-17 19:10:00,
2013-07-17 14:20:00,91.4,61.5,30.15,North,0,0.0,0.0,37,0.00,CLR,,0.00,WeatherDisplay:10.37,2013-07-17 19:20:00,
2013-07-17 14:30:00,91.0,61.1,30.15,North,0,0.0,0.0,37,0.00,CLR,,0.00,WeatherDisplay:10.37,2013-07-17 19:30:00,
2013-07-17 14:40:00,90.5,61.4,30.15,North,0,0.0,0.0,38,0.00,CLR,,0.00,WeatherDisplay:10.37,2013-07-17 19:40:00,
2013-07-17 14:50:00,90.1,61.8,30.15,North,0,0.0,0.0,39,0.00,CLR,,0.00,WeatherDisplay:10.37,2013-07-17 19:50:00,
2013-07-17 15:00:00,90.5,61.4,30.15,North,0,0.0,0.0,38,0.00,CLR,,0.00,WeatherDisplay:10.37,2013-07-17 20:00:00,
2013-07-17 15:10:00,90.5,61.4,30.15,North,0,0.0,0.0,38,0.00,CLR,,0.00,WeatherDisplay:10.37,2013-07-17 20:10:00,
2013-07-17 15:20:00,91.0,62.6,30.15,North,0,0.0,0.0,39,0.00,CLR,,0.00,WeatherDisplay:10.37,2013-07-17 20:20:00,
2013-07-17 15:30:00,91.3,61.4,30.15,North,0,0.0,0.0,37,0.00,CLR,,0.00,WeatherDisplay:10.37,2013-07-17 20:30:00,
2013-07-17 15:40:00,91.4,62.2,30.15,North,0,0.0,0.0,38,0.00,CLR,,0.00,WeatherDisplay:10.37,2013-07-17 20:40:00,
2013-07-17 15:50:00,91.0,61.9,30.15,North,0,0.0,0.0,38,0.00,CLR,,0.00,WeatherDisplay:10.37,2013-07-17 20:50:00,
2013-07-17 16:00:00,90.5,61.4,30.12,North,0,0.0,0.0,38,0.00,CLR,,0.00,WeatherDisplay:10.37,2013-07-17 21:00:00,
2013-07-17 16:10:00,90.2,62.6,30.12,North,0,0.0,0.0,40,0.00,CLR,,0.00,WeatherDisplay:10.37,2013-07-17 21:10:00,
2013-07-17 16:20:00,90.5,62.2,30.12,North,0,0.0,0.0,39,0.00,CLR,,0.00,WeatherDisplay:10.37,2013-07-17 21:20:00,
2013-07-17 16:30:00,90.7,62.3,30.12,North,0,0.0,0.0,39,0.00,CLR,,0.00,WeatherDisplay:10.37,2013-07-17 21:30:00,
2013-07-17 16:40:00,90.7,62.3,30.12,North,0,0.0,0.0,39,0.00,CLR,,0.00,WeatherDisplay:10.37,2013-07-17 21:40:00,
2013-07-17 16:50:00,91.0,62.6,30.12,North,0,0.0,0.0,39,0.00,CLR,,0.00,WeatherDisplay:10.37,2013-07-17 21:50:00,
2013-07-17 17:00:00,91.2,62.8,30.12,North,0,0.0,0.0,39,0.00,CLR,,0.00,WeatherDisplay:10.37,2013-07-17 22:00:00,
2013-07-17 17:10:00,91.2,62.8,30.12,North,0,0.0,0.0,39,0.00,CLR,,0.00,WeatherDisplay:10.37,2013-07-17 22:10:00,
2013-07-17 17:20:00,91.0,61.9,30.12,North,0,0.0,0.0,38,0.00,CLR,,0.00,WeatherDisplay:10.37,2013-07-17 22:20:00,
2013-07-17 17:30:00,91.0,62.6,30.12,North,0,0.0,0.0,39,0.00,CLR,,0.00,WeatherDisplay:10.37,2013-07-17 22:30:00,
2013-07-17 17:40:00,91.0,61.9,30.12,North,0,0.0,0.0,38,0.00,CLR,,0.00,WeatherDisplay:10.37,2013-07-17 22:40:00,
2013-07-17 17:50:00,90.9,61.7,30.12,North,0,0.0,0.0,38,0.00,CLR,,0.00,WeatherDisplay:10.37,2013-07-17 22:50:00,
2013-07-17 18:00:00,90.7,61.6,30.09,North,0,0.0,0.0,38,0.00,CLR,,0.00,WeatherDisplay:10.37,2013-07-17 23:00:00,
2013-07-17 18:10:00,90.7,61.6,30.09,North,0,0.0,0.0,38,0.00,CLR,,0.00,WeatherDisplay:10.37,2013-07-17 23:10:00,
2013-07-17 18:20:00,90.3,62.0,30.09,North,0,0.0,0.0,39,0.00,CLR,,0.00,WeatherDisplay:10.37,2013-07-17 23:20:00,
2013-07-17 18:30:00,90.1,61.8,30.09,North,0,0.0,0.0,39,0.00,CLR,,0.00,WeatherDisplay:10.37,2013-07-17 23:30:00,
2013-07-17 18:40:00,89.8,62.2,30.09,North,0,0.0,0.0,40,0.00,CLR,,0.00,WeatherDisplay:10.37,2013-07-17 23:40:00,
2013-07-17 18:50:00,89.4,62.6,30.09,North,0,0.0,0.0,41,0.00,CLR,,0.00,WeatherDisplay:10.37,2013-07-17 23:50:00,
2013-07-17 19:00:00,88.9,63.5,30.09,North,0,0.0,0.0,43,0.00,CLR,,0.00,WeatherDisplay:10.37,2013-07-18 00:00:00,
2013-07-17 19:10:00,86.5,68.9,30.09,North,0,0.0,0.0,56,0.00,CLR,,0.00,WeatherDisplay:10.37,2013-07-18 00:10:00,
2013-07-17 19:20:00,83.7,70.3,30.09,North,0,0.0,0.0,64,0.00,CLR,,0.00,WeatherDisplay:10.37,2013-07-18 00:20:00,
2013-07-17 19:30:00,82.6,70.9,30.09,North,0,0.0,0.0,68,0.00,CLR,,0.00,WeatherDisplay:10.37,2013-07-18 00:30:00,
2013-07-17 19:40:00,82.2,71.9,30.09,North,0,0.0,0.0,71,0.00,CLR,,0.00,WeatherDisplay:10.37,2013-07-18 00:40:00,
2013-07-17 19:50:00,82.0,72.5,30.09,North,0,0.0,0.0,73,0.00,CLR,,0.00,WeatherDisplay:10.37,2013-07-18 00:50:00,
2013-07-17 20:00:00,82.0,72.9,30.09,North,0,0.0,0.0,74,0.00,CLR,,0.00,WeatherDisplay:10.37,2013-07-18 01:00:00,
2013-07-17 20:10:00,82.2,73.1,30.09,North,0,0.0,0.0,74,0.00,CLR,,0.00,WeatherDisplay:10.37,2013-07-18 01:10:00,
2013-07-17 20:20:00,82.2,73.1,30.09,North,0,0.0,0.0,74,0.00,CLR,,0.00,WeatherDisplay:10.37,2013-07-18 01:20:00,
2013-07-17 20:30:00,82.2,72.7,30.06,North,0,0.0,0.0,73,0.00,CLR,,0.00,WeatherDisplay:10.37,2013-07-18 01:30:00,
2013-07-17 20:40:00,82.1,71.8,30.06,North,0,0.0,0.0,71,0.00,CLR,,0.00,WeatherDisplay:10.37,2013-07-18 01:40:00,
2013-07-17 20:50:00,82.0,71.3,30.09,North,0,0.0,0.0,70,0.00,CLR,,0.00,WeatherDisplay:10.37,2013-07-18 01:50:00,
2013-07-17 21:00:00,81.9,71.5,30.06,North,0,0.0,0.0,71,0.00,CLR,,0.00,WeatherDisplay:10.37,2013-07-18 02:00:00,
2013-07-17 21:10:00,81.7,71.4,30.06,North,0,0.0,0.0,71,0.00,CLR,,0.00,WeatherDisplay:10.37,2013-07-18 02:10:00,
2013-07-17 21:20:00,81.5,70.8,30.06,North,0,0.0,0.0,70,0.00,CLR,,0.00,WeatherDisplay:10.37,2013-07-18 02:20:00,
2013-07-17 21:30:00,81.3,70.6,30.06,North,0,0.0,0.0,70,0.00,CLR,,0.00,WeatherDisplay:10.37,2013-07-18 02:30:00,
2013-07-17 21:40:00,81.1,70.0,30.06,North,0,0.0,0.0,69,0.00,CLR,,0.00,WeatherDisplay:10.37,2013-07-18 02:40:00,
2013-07-17 21:50:00,81.1,69.6,30.06,North,0,0.0,0.0,68,0.00,CLR,,0.00,WeatherDisplay:10.37,2013-07-18 02:50:00,
2013-07-17 22:00:00,81.1,69.6,30.06,North,0,0.0,0.0,68,0.00,CLR,,0.00,WeatherDisplay:10.37,2013-07-18 03:00:00,
2013-07-17 22:10:00,81.1,69.6,30.06,North,0,0.0,0.0,68,0.00,CLR,,0.00,WeatherDisplay:10.37,2013-07-18 03:10:00,
2013-07-17 22:20:00,81.0,69.4,30.06,North,0,0.0,0.0,68,0.00,CLR,,0.00,WeatherDisplay:10.37,2013-07-18 03:20:00,
2013-07-17 22:30:00,80.8,69.2,30.06,North,0,0.0,0.0,68,0.00,CLR,,0.00,WeatherDisplay:10.37,2013-07-18 03:30:00,
2013-07-17 22:40:00,80.8,69.2,30.06,North,0,0.0,0.0,68,0.00,CLR,,0.00,WeatherDisplay:10.37,2013-07-18 03:40:00,
2013-07-17 22:50:00,80.6,69.1,30.06,North,0,0.0,0.0,68,0.00,CLR,,0.00,WeatherDisplay:10.37,2013-07-18 03:50:00,
2013-07-17 23:00:00,80.6,69.1,30.06,North,0,0.0,0.0,68,0.00,CLR,,0.00,WeatherDisplay:10.37,2013-07-18 04:00:00,
2013-07-17 23:10:00,80.4,68.9,30.06,North,0,0.0,0.0,68,0.00,CLR,,0.00,WeatherDisplay:10.37,2013-07-18 04:10:00,
2013-07-17 23:20:00,80.3,68.7,30.06,North,0,0.0,0.0,68,0.00,CLR,,0.00,WeatherDisplay:10.37,2013-07-18 04:20:00,
2013-07-17 23:30:00,80.2,69.1,30.06,North,0,0.0,0.0,69,0.00,CLR,,0.00,WeatherDisplay:10.37,2013-07-18 04:30:00,
2013-07-17 23:40:00,80.2,69.1,30.06,North,0,0.0,0.0,69,0.00,CLR,,0.00,WeatherDisplay:10.37,2013-07-18 04:40:00,
2013-07-17 23:50:00,80.1,69.0,30.06,North,0,0.0,0.0,69,0.00,CLR,,0.00,WeatherDisplay:10.37,2013-07-18 04:50:00,